User: anonymous   Login
Location: Palomar Mountain Lodge
(33.3110°N, 116.8495°W)
Time: 21:23:06
(UTC-07:00)
Language:

Cosmos 1602 Rocket - Orbit

View from above orbital plane
View from above orbital plane
View from above satellite
View from above satellite

Ground track
Ground track

The orbit data is extracted from the following two-line orbital elements,

1 15332U 84105B   19109.01807130  .00000063  00000-0  47468-5 0  9995
2 15332  82.5319 280.9838 0020088 321.3141 156.7870 14.83384307866033
Epoch (UTC): 19 April 2019 00:26:01
Eccentricity: 0.0020088
inclination: 82.5319°
perigee height: 604 km
apogee height: 633 km
right ascension of ascending node: 280.9838°
argument of perigee: 321.3141°
revolutions per day: 14.83384307
mean anomaly at epoch: 156.7870°
orbit number at epoch: 86603

The dashed part of the orbit path shows where the satellite is in the earth's shadow,  

DLR